Tavèrnoles





Hora UTC 10:30
Temperatura 16.9 ºC
Humitat 67.0 %
Pressió 1010.8 hPa
Pluja 0.6 mm
Velocitat vent 0.0 km/h
Direcció vent SSW
Radiació solar 868.0 W/m²

Dades diàries 2021-05-14



Hora UTC (hivern +1h; estiu +2h)
Temperatura (ºC) Humitat (%) Pressió (hPa) Velocitat vent (km/h) Precipitació (mm) Radiació solar (W/m²)
Hora UTC Aire Humitat Pressió Vel. Dir. Vel. Max Dir. Intent. màx 5 min. Rad. Sol.
00:05 10.9 82.0 1009.4 0.0 SE 0.0 0.0 0.0
00:10 10.8 83.0 1009.3 0.0 SE 0.0 0.0 0.0
00:15 10.9 84.0 1009.4 0.0 SSW 0.0 0.0 0.0
00:20 11.0 83.0 1009.4 0.0 SSW 0.0 0.0 0.0
00:25 11.0 83.0 1009.4 0.0 SSW 0.0 0.0 0.0
00:30 11.0 84.0 1009.4 0.0 SSW 0.0 0.0 0.0
00:35 11.1 84.0 1009.3 0.0 SSW 0.0 0.0 0.0
00:40 11.2 84.0 1009.3 0.0 SSW 0.0 0.0 0.0
00:45 11.2 84.0 1009.3 0.0 SSW 0.0 0.0 0.0
00:50 11.2 84.0 1009.2 0.0 SSW 0.0 0.0 0.0
00:55 11.2 84.0 1009.2 0.0 SSW 0.0 0.0 0.0
01:00 11.2 85.0 1009.2 0.0 SSW 0.0 0.0 0.0
01:05 11.3 85.0 1009.2 0.0 SSW 0.0 0.0 0.0
01:10 11.3 85.0 1009.1 0.0 SSW 0.0 0.0 0.0
01:15 11.4 85.0 1009.0 0.0 SSW 0.0 0.0 0.0
01:20 11.4 85.0 1009.1 0.0 SSW 0.0 0.0 0.0
01:25 11.4 85.0 1009.1 0.0 SSW 0.0 0.0 0.0
01:30 11.4 85.0 1009.1 0.0 SSW 0.0 0.0 0.0
01:35 11.5 84.0 1009.0 0.0 SSW 0.0 0.0 0.0
01:40 11.6 85.0 1008.9 0.0 SSW 0.0 0.0 0.0
01:45 11.6 85.0 1008.9 0.0 SSW 0.0 0.0 0.0
01:50 11.6 84.0 1008.9 0.0 SSW 0.0 0.0 0.0
01:55 11.6 84.0 1008.8 0.0 SSW 0.0 0.0 0.0
02:00 11.7 84.0 1008.8 0.0 SSW 0.0 0.0 0.0
02:05 11.7 85.0 1009.0 0.0 SSW 0.0 0.0 0.0
02:10 11.7 85.0 1008.9 0.0 SSW 0.0 0.0 0.0
02:15 11.7 85.0 1008.9 0.0 SSW 0.0 0.0 0.0
02:20 11.7 85.0 1008.8 0.0 SSW 0.0 0.0 0.0
02:25 11.7 85.0 1008.8 0.0 SSW 0.0 0.0 0.0
02:30 11.7 86.0 1008.7 0.0 SSW 0.0 0.0 0.0
02:35 11.7 85.0 1008.7 0.0 SSW 0.0 0.0 0.0
02:40 11.7 85.0 1008.7 0.0 SSW 0.0 0.0 0.0
02:45 11.6 85.0 1008.7 0.0 SSW 0.0 0.0 0.0
02:50 11.6 86.0 1008.7 0.0 SSW 0.0 0.0 0.0
02:55 11.6 86.0 1008.6 0.0 SSW 0.0 0.0 0.0
03:00 11.6 86.0 1008.5 0.0 SSW 0.0 0.0 0.0
03:05 11.6 86.0 1008.5 0.0 SSW 0.0 0.0 0.0
03:10 11.5 86.0 1008.5 0.0 SSW 0.0 0.0 0.0
03:15 11.5 86.0 1008.6 0.0 SSW 0.0 0.0 0.0
03:20 11.4 86.0 1008.6 0.0 SSW 0.0 0.0 0.0
03:25 11.4 86.0 1008.6 0.0 SSW 0.0 0.0 0.0
03:30 11.4 86.0 1008.7 0.0 SSW 0.0 0.0 0.0
03:35 11.4 86.0 1008.7 0.0 SSW 0.0 0.0 0.0
03:40 11.3 86.0 1008.8 0.0 SSW 0.0 0.0 0.0
03:45 11.4 86.0 1008.8 0.0 SSW 0.0 0.0 0.0
03:50 11.4 86.0 1008.8 0.0 SSW 0.0 0.0 0.0
03:55 11.4 86.0 1008.8 0.0 SSW 0.0 0.0 0.0
04:00 11.3 86.0 1008.7 0.0 SSW 0.0 0.0 0.0
04:05 11.3 87.0 1008.6 0.0 SSW 0.0 0.0 0.0
04:10 11.3 86.0 1008.6 0.0 SSW 0.0 0.0 0.0
04:15 11.3 87.0 1008.6 0.0 SSW 0.0 0.0 0.0
04:20 11.3 87.0 1008.6 0.0 SSW 0.0 0.0 0.0
04:25 11.3 87.0 1008.7 0.0 SSW 0.0 0.0 0.0
04:30 11.3 87.0 1008.7 0.0 SSW 0.0 0.0 0.0
04:35 11.3 87.0 1008.6 0.0 SSW 0.0 0.0 0.0
04:40 11.2 87.0 1008.7 0.0 SSW 0.0 0.0 0.0
04:45 11.2 87.0 1008.7 0.0 SSW 0.0 0.0 0.0
04:50 11.2 87.0 1008.7 0.0 SSW 0.0 0.0 0.0
04:55 11.2 87.0 1008.7 0.0 SSW 0.0 0.0 0.0
05:00 11.2 87.0 1008.8 0.0 SSW 0.0 0.0 0.0
05:05 11.2 87.0 1008.8 0.0 SSW 0.0 0.0 0.0
05:10 11.2 88.0 1008.8 0.0 SSW 0.0 0.0 0.0
05:15 11.2 88.0 1008.9 0.0 SSW 0.0 0.0 7.0
05:20 11.2 88.0 1009.0 0.0 SSW 0.0 0.0 11.0
05:25 11.2 88.0 1009.1 0.0 SSW 0.0 0.0 12.0
05:30 11.2 88.0 1009.0 0.0 SSW 0.0 0.0 11.0
05:35 11.3 88.0 1009.1 0.0 SSW 0.0 0.0 18.0
05:40 11.3 88.0 1009.1 0.0 SSW 0.0 0.0 21.0
05:45 11.3 88.0 1009.2 0.0 W 0.0 0.0 23.0
05:50 11.4 88.0 1009.2 0.0 W 0.0 0.0 30.0
05:55 11.4 88.0 1009.2 0.0 W 0.0 0.0 37.0
06:00 11.5 88.0 1009.3 0.0 W 0.0 0.0 49.0
06:05 11.6 88.0 1009.4 0.0 W 0.0 0.0 58.0
06:10 11.6 86.0 1009.4 0.0 W 0.0 0.0 54.0
06:15 11.6 87.0 1009.5 0.0 W 0.0 0.0 44.0
06:20 11.6 86.0 1009.6 0.0 W 0.0 0.2 53.0
06:25 11.6 87.0 1009.6 0.0 W 0.0 0.0 69.0
06:30 11.6 87.0 1009.6 0.0 W 0.0 0.0 86.0
06:35 11.7 87.0 1009.7 0.0 W 0.0 0.0 93.0
06:40 11.7 86.0 1009.8 0.0 W 0.0 0.0 132.0
06:45 11.7 87.0 1009.9 0.0 W 0.0 0.0 67.0
06:50 11.8 86.0 1010.0 0.0 W 0.0 0.0 54.0
06:55 11.8 86.0 1010.0 0.0 W 0.0 0.0 56.0
07:00 11.8 87.0 1010.1 0.0 W 0.0 0.0 93.0
07:05 11.8 87.0 1010.2 0.0 W 1.6 0.2 63.0
07:10 11.8 87.0 1010.3 0.0 W 1.6 0.0 47.0
07:15 11.8 87.0 1010.2 0.0 W 0.0 0.0 97.0
07:20 11.8 88.0 1010.3 0.0 W 0.0 0.0 113.0
07:25 11.9 88.0 1010.3 0.0 WSW 0.0 0.0 97.0
07:30 12.1 89.0 1010.3 3.2 S 6.4 0.0 107.0
07:35 12.1 88.0 1010.2 4.8 S 8.0 0.0 91.0
07:40 12.1 87.0 1010.2 3.2 S 11.3 0.0 63.0
07:45 11.9 86.0 1010.2 0.0 SSW 11.3 0.0 69.0
07:50 11.9 87.0 1010.2 1.6 SSW 8.0 0.0 62.0
07:55 11.9 88.0 1010.5 4.8 SSE 8.0 0.0 86.0
08:00 12.0 88.0 1010.7 0.0 S 12.9 0.0 225.0
08:05 12.2 87.0 1010.7 3.2 S 12.9 0.0 200.0
08:10 12.4 88.0 1010.8 1.6 SSW 8.0 0.0 156.0
08:15 12.6 86.0 1010.8 3.2 S 9.7 0.0 172.0
08:20 12.8 87.0 1010.7 11.3 S 11.3 0.0 183.0
08:25 13.1 85.0 1010.6 9.7 S 12.9 0.0 345.0
08:30 13.4 84.0 1010.5 4.8 S 17.7 0.0 120.0
08:35 13.7 83.0 1010.6 6.4 SW 17.7 0.0 84.0
08:40 14.1 84.0 1010.7 0.0 SSW 12.9 0.0 156.0
08:45 14.2 80.0 1010.7 1.6 S 12.9 0.0 190.0
08:50 14.2 79.0 1010.6 0.0 SE 12.9 0.0 132.0
08:55 14.3 79.0 1010.6 3.2 S 11.3 0.0 436.0
09:00 14.7 79.0 1010.6 1.6 SSW 12.9 0.0 436.0
09:05 14.9 78.0 1010.6 8.0 S 11.3 0.0 831.0
09:10 15.2 76.0 1010.7 0.0 SSW 12.9 0.0 227.0
09:15 15.3 77.0 1010.8 3.2 SSE 12.9 0.0 274.0
09:20 15.2 76.0 1010.7 1.6 SSW 11.3 0.0 193.0
09:25 15.3 75.0 1010.8 1.6 S 12.9 0.0 782.0
09:30 15.7 72.0 1010.8 0.0 NW 12.9 0.0 747.0
09:35 15.8 73.0 1010.8 3.2 S 14.5 0.0 763.0
09:40 15.9 74.0 1010.9 1.6 W 14.5 0.0 789.0
09:45 16.2 69.0 1010.8 1.6 S 12.9 0.0 833.0
09:50 16.4 70.0 1010.8 1.6 S 16.1 0.0 921.0
09:55 16.6 71.0 1010.9 1.6 SSW 16.1 0.0 954.0
10:00 16.6 70.0 1010.9 3.2 S 4.8 0.0 237.0
10:05 16.6 67.0 1010.9 1.6 SSE 8.0 0.0 821.0
10:10 16.7 69.0 1010.7 1.6 SE 8.0 0.2 823.0
10:15 16.8 68.0 1010.7 6.4 S 12.9 0.0 856.0
10:20 16.9 65.0 1010.7 0.0 WSW 16.1 0.0 914.0
10:25 16.9 64.0 1010.8 8.0 SSW 17.7 0.0 861.0
10:30 16.9 67.0 1010.8 0.0 SSW 16.1 0.0 868.0
Màxima 16.9 89.0 1010.9 11.3 S 17.7 0.2 954.0
Mínima 10.8 64.0 1008.5
Total 0.6